Time,TemperatureF,DewpointF,PressureIn,WindDirection,WindDirectionDegrees,WindSpeedMPH,WindSpeedGustMPH,Humidity,HourlyPrecipIn,Conditions,Clouds,dailyrainin,SolarRadiationWatts/m^2,SoftwareType,DateUTC
2013-05-20 00:04:00,80.4,50.2,29.96,SSE,148,10.0,0.0,35,0.00,,,0.00,1,WeatherHawk,2013-05-20 05:04:00,
2013-05-20 00:09:00,80.1,50.8,29.96,ESE,121,13.0,0.0,36,0.00,,,0.00,1,WeatherHawk,2013-05-20 05:09:00,
2013-05-20 00:14:00,80.0,50.6,29.96,SE,139,12.0,0.0,36,0.00,,,0.00,0,WeatherHawk,2013-05-20 05:14:00,
2013-05-20 00:19:00,79.9,51.3,29.97,SSE,158,10.0,0.0,37,0.00,,,0.00,0,WeatherHawk,2013-05-20 05:19:00,
2013-05-20 00:24:00,79.8,51.2,29.97,SSE,155,11.0,0.0,37,0.00,,,0.00,0,WeatherHawk,2013-05-20 05:24:00,
2013-05-20 00:29:00,79.7,51.1,29.96,SSE,159,12.0,0.0,37,0.00,,,0.00,0,WeatherHawk,2013-05-20 05:29:00,
2013-05-20 00:34:00,79.5,51.6,29.96,South,179,11.0,0.0,38,0.00,,,0.00,0,WeatherHawk,2013-05-20 05:34:00,
2013-05-20 00:39:00,79.3,51.4,29.97,South,173,9.0,0.0,38,0.00,,,0.00,1,WeatherHawk,2013-05-20 05:39:00,
2013-05-20 00:44:00,79.2,52.1,29.96,SSE,157,10.0,0.0,39,0.00,,,0.00,1,WeatherHawk,2013-05-20 05:44:00,
2013-05-20 00:49:00,79.0,51.9,29.96,South,176,10.0,0.0,39,0.00,,,0.00,0,WeatherHawk,2013-05-20 05:49:00,
2013-05-20 00:54:00,78.9,51.8,29.97,South,177,10.0,-999.0,39,0.00,,,0.00,0,WeatherHawk,2013-05-20 05:54:00,
2013-05-20 00:59:00,78.7,51.7,29.96,SSW,198,11.0,0.0,39,0.00,,,0.00,1,WeatherHawk,2013-05-20 05:59:00,
2013-05-20 01:04:00,78.6,52.3,29.96,South,171,8.0,0.0,40,0.00,,,0.00,1,WeatherHawk,2013-05-20 06:04:00,
2013-05-20 01:09:00,78.4,52.1,29.97,South,170,15.0,0.0,40,0.00,,,0.00,0,WeatherHawk,2013-05-20 06:09:00,
2013-05-20 01:14:00,78.4,52.1,29.96,SSE,149,13.0,0.0,40,0.00,,,0.00,1,WeatherHawk,2013-05-20 06:14:00,
2013-05-20 01:19:00,78.2,52.5,29.97,South,172,10.0,0.0,41,0.00,,,0.00,1,WeatherHawk,2013-05-20 06:19:00,
2013-05-20 01:24:00,78.2,52.5,29.98,SSE,155,11.0,0.0,41,0.00,,,0.00,0,WeatherHawk,2013-05-20 06:24:00,
2013-05-20 01:29:00,78.0,53.0,29.96,SSE,160,17.0,-999.0,42,0.00,,,0.00,0,WeatherHawk,2013-05-20 06:29:00,
2013-05-20 01:34:00,77.8,52.8,29.98,South,180,10.0,0.0,42,0.00,,,0.00,0,WeatherHawk,2013-05-20 06:34:00,
2013-05-20 01:39:00,77.6,53.3,29.97,South,175,7.0,-999.0,43,0.00,,,0.00,0,WeatherHawk,2013-05-20 06:39:00,
2013-05-20 01:44:00,77.5,53.2,29.96,South,170,18.0,0.0,43,0.00,,,0.00,1,WeatherHawk,2013-05-20 06:44:00,
2013-05-20 01:49:00,77.4,53.7,29.95,SE,127,14.0,-999.0,44,0.00,,,0.00,0,WeatherHawk,2013-05-20 06:49:00,
2013-05-20 01:54:00,77.1,53.5,29.96,SSE,156,14.0,0.0,44,0.00,,,0.00,1,WeatherHawk,2013-05-20 06:54:00,
2013-05-20 01:59:00,77.0,54.0,29.97,SSE,153,13.0,0.0,45,0.00,,,0.00,0,WeatherHawk,2013-05-20 06:59:00,
2013-05-20 02:04:00,76.8,54.4,29.96,South,170,9.0,-999.0,46,0.00,,,0.00,0,WeatherHawk,2013-05-20 07:04:00,
2013-05-20 02:09:00,76.8,54.4,29.96,SE,140,15.0,0.0,46,0.00,,,0.00,2,WeatherHawk,2013-05-20 07:09:00,
2013-05-20 02:14:00,76.6,54.8,29.96,SSE,148,10.0,0.0,47,0.00,,,0.00,0,WeatherHawk,2013-05-20 07:14:00,
2013-05-20 02:19:00,76.5,54.7,29.96,South,183,7.0,0.0,47,0.00,,,0.00,0,WeatherHawk,2013-05-20 07:19:00,
2013-05-20 02:24:00,76.3,55.2,29.95,South,173,7.0,0.0,48,0.00,,,0.00,0,WeatherHawk,2013-05-20 07:24:00,
2013-05-20 02:29:00,76.3,55.1,29.95,SE,137,6.0,0.0,48,0.00,,,0.00,1,WeatherHawk,2013-05-20 07:29:00,
2013-05-20 02:34:00,76.2,54.5,29.96,SSE,165,10.0,0.0,47,0.00,,,0.00,1,WeatherHawk,2013-05-20 07:34:00,
2013-05-20 02:39:00,76.0,54.9,29.96,SSW,212,10.0,0.0,48,0.00,,,0.00,0,WeatherHawk,2013-05-20 07:39:00,
2013-05-20 02:44:00,76.0,54.3,29.96,SE,126,17.0,0.0,47,0.00,,,0.00,0,WeatherHawk,2013-05-20 07:44:00,
2013-05-20 02:49:00,75.9,54.2,29.97,ESE,120,14.0,-999.0,47,0.00,,,0.00,0,WeatherHawk,2013-05-20 07:49:00,
2013-05-20 02:54:00,75.8,54.7,29.95,SE,145,12.0,0.0,48,0.00,,,0.00,0,WeatherHawk,2013-05-20 07:54:00,
2013-05-20 02:59:00,75.7,54.6,29.97,SW,224,5.0,0.0,48,0.00,,,0.00,0,WeatherHawk,2013-05-20 07:59:00,
2013-05-20 03:04:00,75.8,54.6,29.95,SE,146,17.0,0.0,48,0.00,,,0.00,0,WeatherHawk,2013-05-20 08:04:00,
2013-05-20 03:09:00,75.7,54.6,29.96,SSE,163,13.0,0.0,48,0.00,,,0.00,0,WeatherHawk,2013-05-20 08:09:00,
2013-05-20 03:14:00,75.6,54.5,29.95,SE,126,14.0,-999.0,48,0.00,,,0.00,0,WeatherHawk,2013-05-20 08:14:00,
2013-05-20 03:19:00,75.6,54.5,29.95,SSE,148,8.0,0.0,48,0.00,,,0.00,0,WeatherHawk,2013-05-20 08:19:00,
2013-05-20 03:24:00,75.5,54.4,29.96,SSE,161,5.0,0.0,48,0.00,,,0.00,0,WeatherHawk,2013-05-20 08:24:00,
2013-05-20 03:29:00,75.5,54.9,29.96,SSE,155,13.0,0.0,49,0.00,,,0.00,1,WeatherHawk,2013-05-20 08:29:00,
2013-05-20 03:34:00,75.4,54.9,29.96,South,172,10.0,0.0,49,0.00,,,0.00,1,WeatherHawk,2013-05-20 08:34:00,
2013-05-20 03:39:00,75.4,54.9,29.96,SSE,152,15.0,0.0,49,0.00,,,0.00,0,WeatherHawk,2013-05-20 08:39:00,
2013-05-20 03:44:00,75.3,54.8,29.96,SW,220,5.0,0.0,49,0.00,,,0.00,0,WeatherHawk,2013-05-20 08:44:00,
2013-05-20 03:49:00,75.3,54.8,29.95,SSE,149,4.0,0.0,49,0.00,,,0.00,0,WeatherHawk,2013-05-20 08:49:00,
2013-05-20 03:54:00,75.4,54.9,29.95,South,179,10.0,0.0,49,0.00,,,0.00,1,WeatherHawk,2013-05-20 08:54:00,
2013-05-20 03:59:00,75.4,54.9,29.96,SSE,167,6.0,-999.0,49,0.00,,,0.00,0,WeatherHawk,2013-05-20 08:59:00,
2013-05-20 04:04:00,75.4,54.9,29.96,SSE,162,13.0,0.0,49,0.00,,,0.00,0,WeatherHawk,2013-05-20 09:04:00,
2013-05-20 04:09:00,75.3,54.8,29.96,South,186,7.0,-999.0,49,0.00,,,0.00,0,WeatherHawk,2013-05-20 09:09:00,
2013-05-20 04:14:00,75.3,54.8,29.96,ESE,119,4.0,0.0,49,0.00,,,0.00,0,WeatherHawk,2013-05-20 09:14:00,
2013-05-20 04:19:00,75.3,54.8,29.95,SSW,208,3.0,0.0,49,0.00,,,0.00,0,WeatherHawk,2013-05-20 09:19:00,
2013-05-20 04:24:00,75.3,54.8,29.96,SSW,199,10.0,0.0,49,0.00,,,0.00,1,WeatherHawk,2013-05-20 09:24:00,
2013-05-20 04:29:00,75.4,54.9,29.96,SW,236,9.0,0.0,49,0.00,,,0.00,1,WeatherHawk,2013-05-20 09:29:00,
2013-05-20 04:34:00,75.4,55.4,29.96,South,175,6.0,0.0,50,0.00,,,0.00,0,WeatherHawk,2013-05-20 09:34:00,
2013-05-20 04:39:00,75.4,55.4,29.96,South,190,5.0,0.0,50,0.00,,,0.00,1,WeatherHawk,2013-05-20 09:39:00,
2013-05-20 04:44:00,75.4,54.9,29.96,SSE,160,7.0,0.0,49,0.00,,,0.00,1,WeatherHawk,2013-05-20 09:44:00,
2013-05-20 04:49:00,75.4,54.9,29.96,SSW,210,6.0,0.0,49,0.00,,,0.00,0,WeatherHawk,2013-05-20 09:49:00,
2013-05-20 04:54:00,75.4,55.5,29.96,SSE,148,5.0,0.0,50,0.00,,,0.00,0,WeatherHawk,2013-05-20 09:54:00,
2013-05-20 04:59:00,75.5,55.0,29.96,SSE,160,7.0,0.0,49,0.00,,,0.00,0,WeatherHawk,2013-05-20 09:59:00,
2013-05-20 05:04:00,75.4,54.9,29.96,SW,230,6.0,0.0,49,0.00,,,0.00,1,WeatherHawk,2013-05-20 10:04:00,
2013-05-20 05:09:00,75.5,55.0,29.97,SSE,155,16.0,-999.0,49,0.00,,,0.00,0,WeatherHawk,2013-05-20 10:09:00,
2013-05-20 05:14:00,75.5,55.0,29.96,South,169,7.0,0.0,49,0.00,,,0.00,0,WeatherHawk,2013-05-20 10:14:00,
2013-05-20 05:19:00,75.5,55.6,29.95,SSE,168,8.0,0.0,50,0.00,,,0.00,0,WeatherHawk,2013-05-20 10:19:00,
2013-05-20 05:24:00,75.5,55.6,29.96,SSE,164,7.0,0.0,50,0.00,,,0.00,0,WeatherHawk,2013-05-20 10:24:00,
2013-05-20 05:29:00,75.6,55.0,29.96,South,169,8.0,0.0,49,0.00,,,0.00,0,WeatherHawk,2013-05-20 10:29:00,
2013-05-20 05:34:00,75.6,55.7,29.96,SE,142,8.0,0.0,50,0.00,,,0.00,0,WeatherHawk,2013-05-20 10:34:00,
2013-05-20 05:39:00,75.6,55.6,29.95,South,191,11.0,0.0,50,0.00,,,0.00,2,WeatherHawk,2013-05-20 10:39:00,
2013-05-20 05:44:00,75.5,55.5,29.97,South,188,12.0,-999.0,50,0.00,,,0.00,0,WeatherHawk,2013-05-20 10:44:00,
2013-05-20 05:49:00,75.5,55.5,29.97,SE,144,9.0,0.0,50,0.00,,,0.00,1,WeatherHawk,2013-05-20 10:49:00,
2013-05-20 05:54:00,75.5,55.5,29.98,SE,146,14.0,-999.0,50,0.00,,,0.00,1,WeatherHawk,2013-05-20 10:54:00,
2013-05-20 05:59:00,75.4,55.5,29.97,South,170,11.0,0.0,50,0.00,,,0.00,1,WeatherHawk,2013-05-20 10:59:00,
2013-05-20 06:04:00,75.4,56.0,29.97,South,180,11.0,0.0,51,0.00,,,0.00,0,WeatherHawk,2013-05-20 11:04:00,
2013-05-20 06:09:00,75.2,55.8,29.98,SSW,210,8.0,0.0,51,0.00,,,0.00,1,WeatherHawk,2013-05-20 11:09:00,
2013-05-20 06:14:00,75.3,55.9,29.97,SW,214,6.0,0.0,51,0.00,,,0.00,1,WeatherHawk,2013-05-20 11:14:00,
2013-05-20 06:19:00,75.3,55.9,29.98,SSW,202,11.0,0.0,51,0.00,,,0.00,1,WeatherHawk,2013-05-20 11:19:00,
2013-05-20 06:24:00,75.2,55.8,29.99,South,172,10.0,0.0,51,0.00,,,0.00,3,WeatherHawk,2013-05-20 11:24:00,
2013-05-20 06:29:00,75.1,55.8,29.97,SSW,205,5.0,0.0,51,0.00,,,0.00,5,WeatherHawk,2013-05-20 11:29:00,
2013-05-20 06:34:00,75.2,55.8,29.98,SSE,147,8.0,0.0,51,0.00,,,0.00,5,WeatherHawk,2013-05-20 11:34:00,
2013-05-20 06:39:00,75.3,55.9,29.99,South,175,9.0,0.0,51,0.00,,,0.00,7,WeatherHawk,2013-05-20 11:39:00,
2013-05-20 06:44:00,75.4,56.0,29.97,SE,143,9.0,-999.0,51,0.00,,,0.00,12,WeatherHawk,2013-05-20 11:44:00,
2013-05-20 06:49:00,75.3,55.9,29.97,SE,141,5.0,0.0,51,0.00,,,0.00,13,WeatherHawk,2013-05-20 11:49:00,
2013-05-20 06:54:00,75.4,56.0,29.99,SSE,152,7.0,-999.0,51,0.00,,,0.00,20,WeatherHawk,2013-05-20 11:54:00,
2013-05-20 06:59:00,75.4,56.0,30.00,SSE,160,13.0,0.0,51,0.00,,,0.00,21,WeatherHawk,2013-05-20 11:59:00,
2013-05-20 07:04:00,75.5,56.1,29.98,SSE,153,4.0,0.0,51,0.00,,,0.00,27,WeatherHawk,2013-05-20 12:04:00,
2013-05-20 07:09:00,75.5,55.5,29.99,South,180,10.0,0.0,50,0.00,,,0.00,28,WeatherHawk,2013-05-20 12:09:00,
2013-05-20 07:14:00,75.6,55.6,29.99,SSW,200,14.0,0.0,50,0.00,,,0.00,31,WeatherHawk,2013-05-20 12:14:00,
2013-05-20 07:19:00,75.6,55.6,30.00,South,170,10.0,0.0,50,0.00,,,0.00,36,WeatherHawk,2013-05-20 12:19:00,
2013-05-20 07:24:00,75.6,55.1,30.00,ESE,120,5.0,0.0,49,0.00,,,0.00,36,WeatherHawk,2013-05-20 12:24:00,
2013-05-20 07:29:00,75.6,55.0,30.00,ESE,121,12.0,0.0,49,0.00,,,0.00,41,WeatherHawk,2013-05-20 12:29:00,
2013-05-20 07:34:00,75.9,55.3,30.00,SSE,153,9.0,-999.0,49,0.00,,,0.00,52,WeatherHawk,2013-05-20 12:34:00,
2013-05-20 07:39:00,75.6,54.5,30.00,South,180,9.0,0.0,48,0.00,,,0.00,59,WeatherHawk,2013-05-20 12:39:00,
2013-05-20 07:44:00,75.8,54.7,30.00,SSE,152,8.0,0.0,48,0.00,,,0.00,65,WeatherHawk,2013-05-20 12:44:00,
2013-05-20 07:49:00,75.9,54.8,30.00,SSE,160,7.0,0.0,48,0.00,,,0.00,84,WeatherHawk,2013-05-20 12:49:00,
2013-05-20 07:54:00,75.8,54.1,29.99,South,190,17.0,-999.0,47,0.00,,,0.00,90,WeatherHawk,2013-05-20 12:54:00,
2013-05-20 07:59:00,76.2,54.5,30.01,SSE,153,8.0,0.0,47,0.00,,,0.00,101,WeatherHawk,2013-05-20 12:59:00,
2013-05-20 08:04:00,76.4,54.1,30.00,SE,131,8.0,-999.0,46,0.00,,,0.00,116,WeatherHawk,2013-05-20 13:04:00,
2013-05-20 08:09:00,76.7,54.3,29.99,SSE,151,6.0,0.0,46,0.00,,,0.00,114,WeatherHawk,2013-05-20 13:09:00,
2013-05-20 08:14:00,76.4,53.5,30.01,South,173,9.0,-999.0,45,0.00,,,0.00,124,WeatherHawk,2013-05-20 13:14:00,
2013-05-20 08:19:00,76.6,53.7,30.00,SE,143,9.0,0.0,45,0.00,,,0.00,128,WeatherHawk,2013-05-20 13:19:00,
2013-05-20 08:25:00,76.4,54.0,30.02,SE,135,13.0,0.0,46,0.00,,,0.00,131,WeatherHawk,2013-05-20 13:25:00,
2013-05-20 08:30:00,76.7,53.8,30.00,South,185,9.0,0.0,45,0.00,,,0.00,129,WeatherHawk,2013-05-20 13:30:00,
2013-05-20 08:35:00,77.0,53.4,30.00,SE,130,10.0,0.0,44,0.00,,,0.00,149,WeatherHawk,2013-05-20 13:35:00,
2013-05-20 08:40:00,77.0,53.4,30.02,South,189,10.0,-999.0,44,0.00,,,0.00,149,WeatherHawk,2013-05-20 13:40:00,
2013-05-20 08:45:00,77.0,52.7,30.01,South,188,15.0,0.0,43,0.00,,,0.00,146,WeatherHawk,2013-05-20 13:45:00,
2013-05-20 08:50:00,77.2,52.9,30.01,South,176,10.0,0.0,43,0.00,,,0.00,184,WeatherHawk,2013-05-20 13:50:00,
2013-05-20 08:55:00,77.3,52.4,30.02,SSE,154,8.0,0.0,42,0.00,,,0.00,189,WeatherHawk,2013-05-20 13:55:00,
2013-05-20 09:00:00,77.6,52.7,30.00,South,174,11.0,0.0,42,0.00,,,0.00,239,WeatherHawk,2013-05-20 14:00:00,
2013-05-20 09:05:00,77.4,52.5,30.01,South,179,12.0,-999.0,42,0.00,,,0.00,221,WeatherHawk,2013-05-20 14:05:00,
2013-05-20 09:10:00,77.9,52.3,30.01,South,178,10.0,0.0,41,0.00,,,0.00,243,WeatherHawk,2013-05-20 14:10:00,
2013-05-20 09:15:00,78.1,52.4,30.02,South,174,7.0,0.0,41,0.00,,,0.00,244,WeatherHawk,2013-05-20 14:15:00,
2013-05-20 09:20:00,77.5,50.6,30.00,SSE,165,13.0,0.0,39,0.00,,,0.00,254,WeatherHawk,2013-05-20 14:20:00,
2013-05-20 09:25:00,78.1,51.8,30.02,South,171,12.0,0.0,40,0.00,,,0.00,252,WeatherHawk,2013-05-20 14:25:00,
2013-05-20 09:30:00,78.5,52.1,30.00,SSE,149,9.0,0.0,40,0.00,,,0.00,229,WeatherHawk,2013-05-20 14:30:00,
2013-05-20 09:35:00,78.1,49.7,30.01,SE,131,10.0,0.0,37,0.00,,,0.00,274,WeatherHawk,2013-05-20 14:35:00,
2013-05-20 09:40:00,78.3,49.9,30.02,South,182,14.0,-999.0,37,0.00,,,0.00,299,WeatherHawk,2013-05-20 14:40:00,
2013-05-20 09:45:00,78.3,50.6,30.01,SSE,168,13.0,0.0,38,0.00,,,0.00,258,WeatherHawk,2013-05-20 14:45:00,
2013-05-20 09:50:00,78.9,50.4,30.01,SE,132,9.0,-999.0,37,0.00,,,0.00,320,WeatherHawk,2013-05-20 14:50:00,
2013-05-20 09:55:00,79.3,50.8,30.00,SSE,149,12.0,0.0,37,0.00,,,0.00,344,WeatherHawk,2013-05-20 14:55:00,
2013-05-20 10:00:00,79.4,50.8,30.00,SSE,167,9.0,0.0,37,0.00,,,0.00,289,WeatherHawk,2013-05-20 15:00:00,
2013-05-20 10:05:00,79.3,49.3,30.01,SSE,163,14.0,0.0,35,0.00,,,0.00,388,WeatherHawk,2013-05-20 15:05:00,
2013-05-20 10:10:00,79.6,48.7,30.01,ESE,113,12.0,0.0,34,0.00,,,0.00,367,WeatherHawk,2013-05-20 15:10:00,
2013-05-20 10:15:00,80.1,48.4,30.01,South,185,8.0,0.0,33,0.00,,,0.00,361,WeatherHawk,2013-05-20 15:15:00,
2013-05-20 10:20:00,80.1,48.3,30.00,SSW,192,11.0,-999.0,33,0.00,,,0.00,294,WeatherHawk,2013-05-20 15:20:00,
2013-05-20 10:25:00,81.0,48.4,30.00,South,171,14.0,0.0,32,0.00,,,0.00,815,WeatherHawk,2013-05-20 15:25:00,
2013-05-20 10:30:00,80.2,46.8,29.99,SSE,154,15.0,-999.0,31,0.00,,,0.00,288,WeatherHawk,2013-05-20 15:30:00,
2013-05-20 10:35:00,81.6,48.0,29.99,SSE,162,8.0,0.0,31,0.00,,,0.00,766,WeatherHawk,2013-05-20 15:35:00,
2013-05-20 10:40:00,81.0,47.5,29.99,SSE,151,11.0,0.0,31,0.00,,,0.00,249,WeatherHawk,2013-05-20 15:40:00,
2013-05-20 10:45:00,82.6,47.1,29.98,SW,223,9.0,0.0,29,0.00,,,0.00,779,WeatherHawk,2013-05-20 15:45:00,
2013-05-20 10:50:00,81.6,46.3,29.98,SSE,154,10.0,0.0,29,0.00,,,0.00,875,WeatherHawk,2013-05-20 15:50:00,
2013-05-20 10:55:00,81.4,45.2,29.98,SE,132,14.0,0.0,28,0.00,,,0.00,843,WeatherHawk,2013-05-20 15:55:00,
2013-05-20 11:00:00,83.5,46.9,29.99,SSE,153,6.0,0.0,28,0.00,,,0.00,340,WeatherHawk,2013-05-20 16:00:00,
2013-05-20 11:05:00,82.2,45.8,29.99,South,186,18.0,0.0,28,0.00,,,0.00,833,WeatherHawk,2013-05-20 16:05:00,
2013-05-20 11:10:00,84.8,48.0,29.98,South,178,8.0,0.0,28,0.00,,,0.00,813,WeatherHawk,2013-05-20 16:10:00,
2013-05-20 11:15:00,83.7,46.1,29.97,SSE,166,10.0,0.0,27,0.00,,,0.00,863,WeatherHawk,2013-05-20 16:15:00,
2013-05-20 11:20:00,82.9,44.5,29.98,ESE,107,11.0,0.0,26,0.00,,,0.00,888,WeatherHawk,2013-05-20 16:20:00,
2013-05-20 11:25:00,82.7,44.3,29.98,SSW,203,18.0,0.0,26,0.00,,,0.00,813,WeatherHawk,2013-05-20 16:25:00,
2013-05-20 11:30:00,83.0,44.6,29.98,SW,215,12.0,0.0,26,0.00,,,0.00,497,WeatherHawk,2013-05-20 16:30:00,
2013-05-20 11:35:00,83.0,44.5,29.98,SSE,153,14.0,-999.0,26,0.00,,,0.00,944,WeatherHawk,2013-05-20 16:35:00,
2013-05-20 11:40:00,83.8,44.2,29.99,SSW,195,10.0,0.0,25,0.00,,,0.00,944,WeatherHawk,2013-05-20 16:40:00,
2013-05-20 11:45:00,83.8,43.2,29.98,SW,227,16.0,0.0,24,0.00,,,0.00,471,WeatherHawk,2013-05-20 16:45:00,
2013-05-20 11:50:00,85.3,44.4,29.98,SSE,160,12.0,0.0,24,0.00,,,0.00,602,WeatherHawk,2013-05-20 16:50:00,
2013-05-20 11:55:00,83.6,43.0,29.99,South,176,15.0,0.0,24,0.00,,,0.00,1069,WeatherHawk,2013-05-20 16:55:00,
2013-05-20 12:00:00,85.3,44.4,29.97,SSE,165,12.0,-999.0,24,0.00,,,0.00,1075,WeatherHawk,2013-05-20 17:00:00,
2013-05-20 12:05:00,84.1,44.5,29.99,ESE,113,10.0,0.0,25,0.00,,,0.00,470,WeatherHawk,2013-05-20 17:05:00,
2013-05-20 12:10:00,84.6,42.7,29.98,SSW,209,13.0,-999.0,23,0.00,,,0.00,389,WeatherHawk,2013-05-20 17:10:00,
2013-05-20 12:15:00,84.1,43.4,29.97,SE,136,13.0,0.0,24,0.00,,,0.00,402,WeatherHawk,2013-05-20 17:15:00,
2013-05-20 12:20:00,84.2,41.2,29.97,SSW,196,17.0,0.0,22,0.00,,,0.00,481,WeatherHawk,2013-05-20 17:20:00,
2013-05-20 12:25:00,84.4,42.5,29.98,South,178,13.0,0.0,23,0.00,,,0.00,327,WeatherHawk,2013-05-20 17:25:00,
2013-05-20 12:30:00,86.7,43.3,29.96,SSE,163,6.0,-999.0,22,0.00,,,0.00,1102,WeatherHawk,2013-05-20 17:30:00,
2013-05-20 12:35:00,86.0,42.7,29.96,SW,217,10.0,0.0,22,0.00,,,0.00,373,WeatherHawk,2013-05-20 17:35:00,
2013-05-20 12:40:00,85.1,42.0,29.96,SSE,159,9.0,0.0,22,0.00,,,0.00,364,WeatherHawk,2013-05-20 17:40:00,
2013-05-20 12:45:00,85.3,40.9,29.96,South,184,17.0,0.0,21,0.00,,,0.00,424,WeatherHawk,2013-05-20 17:45:00,
2013-05-20 12:50:00,85.7,41.3,29.96,South,172,16.0,0.0,21,0.00,,,0.00,966,WeatherHawk,2013-05-20 17:50:00,
2013-05-20 12:55:00,85.4,42.2,29.95,ESE,110,15.0,0.0,22,0.00,,,0.00,1001,WeatherHawk,2013-05-20 17:55:00,
2013-05-20 13:00:00,85.2,40.8,29.94,SSW,200,15.0,0.0,21,0.00,,,0.00,451,WeatherHawk,2013-05-20 18:00:00,
2013-05-20 13:05:00,86.0,41.5,29.93,SSE,149,14.0,0.0,21,0.00,,,0.00,971,WeatherHawk,2013-05-20 18:05:00,
2013-05-20 13:10:00,85.8,41.3,29.96,South,177,14.0,0.0,21,0.00,,,0.00,812,WeatherHawk,2013-05-20 18:10:00,
2013-05-20 13:15:00,85.9,40.2,29.93,South,180,14.0,0.0,20,0.00,,,0.00,966,WeatherHawk,2013-05-20 18:15:00,
2013-05-20 13:20:00,85.2,40.9,29.92,South,181,15.0,-999.0,21,0.00,,,0.00,1005,WeatherHawk,2013-05-20 18:20:00,
2013-05-20 13:25:00,87.6,42.8,29.93,South,175,12.0,-999.0,21,0.00,,,0.00,982,WeatherHawk,2013-05-20 18:25:00,
2013-05-20 13:30:00,87.6,40.2,29.94,South,178,15.0,0.0,19,0.00,,,0.00,970,WeatherHawk,2013-05-20 18:30:00,
2013-05-20 13:35:00,86.7,42.1,29.93,SSW,201,14.0,0.0,21,0.00,,,0.00,1046,WeatherHawk,2013-05-20 18:35:00,
2013-05-20 13:40:00,87.4,42.6,29.94,SSE,166,8.0,-999.0,21,0.00,,,0.00,413,WeatherHawk,2013-05-20 18:40:00,
2013-05-20 13:45:00,87.6,41.6,29.93,SSW,199,14.0,0.0,20,0.00,,,0.00,1035,WeatherHawk,2013-05-20 18:45:00,
2013-05-20 13:50:00,89.9,42.1,29.92,South,181,9.0,-999.0,19,0.00,,,0.00,1069,WeatherHawk,2013-05-20 18:50:00,
2013-05-20 13:55:00,86.6,40.7,29.92,SSE,147,15.0,0.0,20,0.00,,,0.00,1050,WeatherHawk,2013-05-20 18:55:00,
2013-05-20 14:00:00,87.2,41.2,29.93,SSE,161,11.0,-999.0,20,0.00,,,0.00,425,WeatherHawk,2013-05-20 19:00:00,
2013-05-20 14:05:00,87.0,39.7,29.92,SSE,155,19.0,0.0,19,0.00,,,0.00,992,WeatherHawk,2013-05-20 19:05:00,
2013-05-20 14:10:00,87.1,41.1,29.91,SSE,154,18.0,0.0,20,0.00,,,0.00,474,WeatherHawk,2013-05-20 19:10:00,
2013-05-20 14:15:00,87.7,41.6,29.92,ESE,120,11.0,0.0,20,0.00,,,0.00,1035,WeatherHawk,2013-05-20 19:15:00,
2013-05-20 14:20:00,88.1,43.2,29.92,SE,142,9.0,0.0,21,0.00,,,0.00,1019,WeatherHawk,2013-05-20 19:20:00,
2013-05-20 14:25:00,87.1,41.1,29.90,SSE,162,19.0,0.0,20,0.00,,,0.00,972,WeatherHawk,2013-05-20 19:25:00,
2013-05-20 14:30:00,87.3,41.3,29.90,South,186,13.0,-999.0,20,0.00,,,0.00,994,WeatherHawk,2013-05-20 19:30:00,
2013-05-20 14:35:00,88.0,40.5,29.91,SSE,160,15.0,0.0,19,0.00,,,0.00,959,WeatherHawk,2013-05-20 19:35:00,
2013-05-20 14:40:00,88.7,39.7,29.90,SSW,209,10.0,0.0,18,0.00,,,0.00,947,WeatherHawk,2013-05-20 19:40:00,
2013-05-20 14:45:00,89.7,40.5,29.89,SSW,201,8.0,0.0,18,0.00,,,0.00,973,WeatherHawk,2013-05-20 19:45:00,
2013-05-20 14:50:00,88.0,40.5,29.92,SE,125,18.0,0.0,19,0.00,,,0.00,918,WeatherHawk,2013-05-20 19:50:00,
2013-05-20 14:55:00,87.4,38.7,29.90,SSE,147,19.0,0.0,18,0.00,,,0.00,919,WeatherHawk,2013-05-20 19:55:00,
2013-05-20 15:00:00,87.9,39.0,29.89,SSE,163,17.0,0.0,18,0.00,,,0.00,926,WeatherHawk,2013-05-20 20:00:00,
2013-05-20 15:05:00,88.8,41.2,29.90,SSE,150,9.0,0.0,19,0.00,,,0.00,313,WeatherHawk,2013-05-20 20:05:00,
2013-05-20 15:10:00,88.2,40.7,29.89,SSE,165,12.0,0.0,19,0.00,,,0.00,926,WeatherHawk,2013-05-20 20:10:00,
2013-05-20 15:15:00,89.2,40.1,29.90,SSE,160,11.0,0.0,18,0.00,,,0.00,930,WeatherHawk,2013-05-20 20:15:00,
2013-05-20 15:20:00,88.7,39.7,29.90,SSE,158,17.0,0.0,18,0.00,,,0.00,949,WeatherHawk,2013-05-20 20:20:00,
2013-05-20 15:25:00,89.7,39.1,29.88,SSW,197,15.0,-999.0,17,0.00,,,0.00,971,WeatherHawk,2013-05-20 20:25:00,
2013-05-20 15:30:00,91.3,40.3,29.87,South,185,8.0,-999.0,17,0.00,,,0.00,945,WeatherHawk,2013-05-20 20:30:00,
2013-05-20 15:35:00,90.6,38.2,29.87,South,171,10.0,0.0,16,0.00,,,0.00,950,WeatherHawk,2013-05-20 20:35:00,
2013-05-20 15:40:00,89.4,37.3,29.86,SSW,200,12.0,0.0,16,0.00,,,0.00,954,WeatherHawk,2013-05-20 20:40:00,
2013-05-20 15:45:00,90.6,39.8,29.86,ESE,122,8.0,0.0,17,0.00,,,0.00,778,WeatherHawk,2013-05-20 20:45:00,
2013-05-20 15:50:00,90.9,40.0,29.87,ESE,112,9.0,-999.0,17,0.00,,,0.00,883,WeatherHawk,2013-05-20 20:50:00,
2013-05-20 15:55:00,90.2,37.9,29.85,SSW,210,17.0,0.0,16,0.00,,,0.00,841,WeatherHawk,2013-05-20 20:55:00,
2013-05-20 16:00:00,89.6,37.4,29.84,ESE,107,14.0,0.0,16,0.00,,,0.00,854,WeatherHawk,2013-05-20 21:00:00,
2013-05-20 16:05:00,90.4,39.6,29.84,SE,131,11.0,0.0,17,0.00,,,0.00,795,WeatherHawk,2013-05-20 21:05:00,
2013-05-20 16:10:00,89.1,35.4,29.84,South,187,19.0,-999.0,15,0.00,,,0.00,880,WeatherHawk,2013-05-20 21:10:00,
2013-05-20 16:15:00,89.0,36.9,29.85,SSE,167,12.0,0.0,16,0.00,,,0.00,796,WeatherHawk,2013-05-20 21:15:00,
2013-05-20 16:20:00,89.4,38.8,29.85,ESE,104,17.0,0.0,17,0.00,,,0.00,748,WeatherHawk,2013-05-20 21:20:00,
2013-05-20 16:25:00,90.9,40.0,29.82,SSE,155,12.0,0.0,17,0.00,,,0.00,747,WeatherHawk,2013-05-20 21:25:00,
2013-05-20 16:30:00,89.4,37.2,29.83,South,181,15.0,0.0,16,0.00,,,0.00,249,WeatherHawk,2013-05-20 21:30:00,
2013-05-20 16:35:00,90.0,39.3,29.83,South,170,9.0,0.0,17,0.00,,,0.00,709,WeatherHawk,2013-05-20 21:35:00,
2013-05-20 16:40:00,89.8,39.2,29.83,SSE,155,11.0,-999.0,17,0.00,,,0.00,712,WeatherHawk,2013-05-20 21:40:00,
2013-05-20 16:45:00,90.0,37.7,29.82,SW,215,18.0,0.0,16,0.00,,,0.00,709,WeatherHawk,2013-05-20 21:45:00,
2013-05-20 16:50:00,90.8,40.0,29.83,East,87,9.0,0.0,17,0.00,,,0.00,653,WeatherHawk,2013-05-20 21:50:00,
2013-05-20 16:55:00,89.9,37.7,29.83,SE,136,17.0,-999.0,16,0.00,,,0.00,657,WeatherHawk,2013-05-20 21:55:00,
2013-05-20 17:00:00,90.5,38.2,29.84,SSE,162,9.0,0.0,16,0.00,,,0.00,665,WeatherHawk,2013-05-20 22:00:00,
2013-05-20 17:05:00,90.4,38.0,29.84,SSE,152,11.0,0.0,16,0.00,,,0.00,612,WeatherHawk,2013-05-20 22:05:00,
2013-05-20 17:10:00,89.8,37.6,29.83,SSE,168,16.0,0.0,16,0.00,,,0.00,685,WeatherHawk,2013-05-20 22:10:00,
2013-05-20 17:15:00,90.2,39.5,29.83,SE,133,12.0,0.0,17,0.00,,,0.00,439,WeatherHawk,2013-05-20 22:15:00,
2013-05-20 17:20:00,90.5,39.7,29.85,South,185,6.0,0.0,17,0.00,,,0.00,160,WeatherHawk,2013-05-20 22:20:00,
2013-05-20 17:25:00,89.1,40.0,29.84,SSW,197,13.0,-999.0,18,0.00,,,0.00,92,WeatherHawk,2013-05-20 22:25:00,
2013-05-20 17:30:00,89.6,40.4,29.86,SSW,205,6.0,0.0,18,0.00,,,0.00,111,WeatherHawk,2013-05-20 22:30:00,
2013-05-20 17:35:00,88.6,39.6,29.86,South,172,15.0,0.0,18,0.00,,,0.00,94,WeatherHawk,2013-05-20 22:35:00,
2013-05-20 17:40:00,89.1,41.4,29.87,South,189,14.0,0.0,19,0.00,,,0.00,85,WeatherHawk,2013-05-20 22:40:00,
2013-05-20 17:45:00,88.3,42.1,29.85,SSE,161,11.0,0.0,20,0.00,,,0.00,68,WeatherHawk,2013-05-20 22:45:00,
2013-05-20 17:50:00,88.3,42.1,29.86,South,176,11.0,0.0,20,0.00,,,0.00,52,WeatherHawk,2013-05-20 22:50:00,
2013-05-20 17:55:00,87.6,41.5,29.86,SE,144,15.0,0.0,20,0.00,,,0.00,39,WeatherHawk,2013-05-20 22:55:00,
2013-05-20 18:00:00,87.7,42.9,29.86,SSW,198,16.0,0.0,21,0.00,,,0.00,30,WeatherHawk,2013-05-20 23:00:00,
2013-05-20 18:05:00,87.5,42.7,29.87,SE,134,17.0,0.0,21,0.00,,,0.00,22,WeatherHawk,2013-05-20 23:05:00,
2013-05-20 18:10:00,87.5,42.7,29.88,South,170,12.0,0.0,21,0.00,,,0.00,18,WeatherHawk,2013-05-20 23:10:00,
2013-05-20 18:15:00,87.3,43.7,29.87,SSE,151,9.0,0.0,22,0.00,,,0.00,14,WeatherHawk,2013-05-20 23:15:00,
2013-05-20 18:20:00,87.2,43.7,29.87,SSE,149,10.0,0.0,22,0.00,,,0.00,13,WeatherHawk,2013-05-20 23:20:00,
2013-05-20 18:25:00,87.3,43.8,29.87,SSW,202,10.0,0.0,22,0.00,,,0.00,12,WeatherHawk,2013-05-20 23:25:00,
2013-05-20 18:30:00,87.0,43.5,29.86,SSE,148,13.0,-999.0,22,0.00,,,0.00,14,WeatherHawk,2013-05-20 23:30:00,
2013-05-20 18:35:00,87.4,43.8,29.88,SSW,202,13.0,-999.0,22,0.00,,,0.00,16,WeatherHawk,2013-05-20 23:35:00,
2013-05-20 18:40:00,87.0,44.7,29.88,South,179,11.0,0.0,23,0.00,,,0.00,24,WeatherHawk,2013-05-20 23:40:00,
2013-05-20 18:45:00,86.8,44.6,29.87,SSE,152,10.0,0.0,23,0.00,,,0.00,29,WeatherHawk,2013-05-20 23:45:00,
2013-05-20 18:50:00,86.5,44.2,29.86,SE,145,11.0,-999.0,23,0.00,,,0.00,36,WeatherHawk,2013-05-20 23:50:00,
2013-05-20 18:55:00,86.3,45.2,29.85,ESE,117,8.0,0.0,24,0.00,,,0.00,40,WeatherHawk,2013-05-20 23:55:00,
2013-05-20 19:00:00,86.2,45.1,29.86,ESE,121,14.0,0.0,24,0.00,,,0.00,38,WeatherHawk,2013-05-21 00:00:00,
2013-05-20 19:05:00,86.0,46.0,29.84,ESE,103,9.0,0.0,25,0.00,,,0.00,35,WeatherHawk,2013-05-21 00:05:00,
2013-05-20 19:10:00,85.9,46.0,29.86,SE,130,8.0,0.0,25,0.00,,,0.00,44,WeatherHawk,2013-05-21 00:10:00,
2013-05-20 19:15:00,85.8,45.9,29.84,ESE,121,12.0,0.0,25,0.00,,,0.00,48,WeatherHawk,2013-05-21 00:15:00,
2013-05-20 19:20:00,85.7,45.8,29.83,SE,145,14.0,-999.0,25,0.00,,,0.00,43,WeatherHawk,2013-05-21 00:20:00,
2013-05-20 19:25:00,85.7,46.8,29.83,SSE,147,11.0,0.0,26,0.00,,,0.00,36,WeatherHawk,2013-05-21 00:25:00,
2013-05-20 19:30:00,85.5,46.6,29.82,SE,126,11.0,-999.0,26,0.00,,,0.00,32,WeatherHawk,2013-05-21 00:30:00,
2013-05-20 19:35:00,85.2,46.4,29.83,SE,130,12.0,0.0,26,0.00,,,0.00,26,WeatherHawk,2013-05-21 00:35:00,
2013-05-20 19:40:00,85.1,46.3,29.81,East,90,10.0,-999.0,26,0.00,,,0.00,23,WeatherHawk,2013-05-21 00:40:00,
2013-05-20 19:45:00,85.4,46.6,29.84,SE,135,13.0,0.0,26,0.00,,,0.00,19,WeatherHawk,2013-05-21 00:45:00,
2013-05-20 19:50:00,85.2,46.4,29.84,ESE,121,13.0,0.0,26,0.00,,,0.00,15,WeatherHawk,2013-05-21 00:50:00,
2013-05-20 19:55:00,85.3,46.5,29.83,East,97,17.0,0.0,26,0.00,,,0.00,12,WeatherHawk,2013-05-21 00:55:00,
2013-05-20 20:00:00,85.5,46.6,29.84,SE,142,15.0,0.0,26,0.00,,,0.00,9,WeatherHawk,2013-05-21 01:00:00,
2013-05-20 20:05:00,85.3,46.5,29.83,ESE,120,12.0,0.0,26,0.00,,,0.00,7,WeatherHawk,2013-05-21 01:05:00,
2013-05-20 20:10:00,85.1,46.3,29.84,SE,127,6.0,0.0,26,0.00,,,0.00,3,WeatherHawk,2013-05-21 01:10:00,
2013-05-20 20:15:00,85.2,46.4,29.86,SSE,152,13.0,0.0,26,0.00,,,0.00,3,WeatherHawk,2013-05-21 01:15:00,
2013-05-20 20:20:00,84.9,47.2,29.84,ESE,108,15.0,0.0,27,0.00,,,0.00,2,WeatherHawk,2013-05-21 01:20:00,
2013-05-20 20:25:00,85.0,47.2,29.84,South,188,14.0,-999.0,27,0.00,,,0.00,0,WeatherHawk,2013-05-21 01:25:00,
2013-05-20 20:30:00,84.7,47.0,29.85,SSE,161,11.0,0.0,27,0.00,,,0.00,1,WeatherHawk,2013-05-21 01:30:00,
2013-05-20 20:35:00,84.8,47.1,29.86,SSE,165,13.0,0.0,27,0.00,,,0.00,0,WeatherHawk,2013-05-21 01:35:00,
2013-05-20 20:40:00,84.6,46.9,29.86,SE,140,8.0,0.0,27,0.00,,,0.00,1,WeatherHawk,2013-05-21 01:40:00,
2013-05-20 20:45:00,84.5,47.8,29.85,SE,142,16.0,0.0,28,0.00,,,0.00,1,WeatherHawk,2013-05-21 01:45:00,
2013-05-20 20:50:00,84.2,47.5,29.84,ESE,121,10.0,-999.0,28,0.00,,,0.00,1,WeatherHawk,2013-05-21 01:50:00,
2013-05-20 20:55:00,84.2,48.4,29.84,SE,135,10.0,0.0,29,0.00,,,0.00,0,WeatherHawk,2013-05-21 01:55:00,
2013-05-20 21:00:00,84.1,48.4,29.84,SSE,156,8.0,0.0,29,0.00,,,0.00,1,WeatherHawk,2013-05-21 02:00:00,
2013-05-20 21:05:00,84.2,48.4,29.85,SE,125,6.0,0.0,29,0.00,,,0.00,0,WeatherHawk,2013-05-21 02:05:00,
2013-05-20 21:10:00,84.5,48.7,29.85,SE,141,18.0,0.0,29,0.00,,,0.00,1,WeatherHawk,2013-05-21 02:10:00,
2013-05-20 21:15:00,84.5,47.8,29.86,SE,141,12.0,0.0,28,0.00,,,0.00,0,WeatherHawk,2013-05-21 02:15:00,
2013-05-20 21:20:00,84.3,47.6,29.86,SE,129,9.0,0.0,28,0.00,,,0.00,1,WeatherHawk,2013-05-21 02:20:00,
2013-05-20 21:25:00,84.7,47.9,29.86,SE,125,10.0,0.0,28,0.00,,,0.00,0,WeatherHawk,2013-05-21 02:25:00,
2013-05-20 21:30:00,84.2,47.5,29.86,SSE,148,10.0,0.0,28,0.00,,,0.00,0,WeatherHawk,2013-05-21 02:30:00,
2013-05-20 21:35:00,84.5,47.8,29.86,SSE,158,11.0,0.0,28,0.00,,,0.00,0,WeatherHawk,2013-05-21 02:35:00,
2013-05-20 21:40:00,84.2,47.5,29.89,ESE,108,5.0,0.0,28,0.00,,,0.00,1,WeatherHawk,2013-05-21 02:40:00,
2013-05-20 21:45:00,84.2,48.5,29.89,South,186,6.0,0.0,29,0.00,,,0.00,0,WeatherHawk,2013-05-21 02:45:00,
2013-05-20 21:50:00,84.3,48.6,29.92,SE,145,6.0,-999.0,29,0.00,,,0.00,1,WeatherHawk,2013-05-21 02:50:00,
2013-05-20 21:55:00,84.0,48.3,29.93,SW,224,0.0,0.0,29,0.00,,,0.00,1,WeatherHawk,2013-05-21 02:55:00,
2013-05-20 22:00:00,84.0,49.2,29.94,NW,304,4.0,0.0,30,0.00,,,0.00,0,WeatherHawk,2013-05-21 03:00:00,
2013-05-20 22:05:00,83.6,48.9,29.93,NW,322,0.0,0.0,30,0.00,,,0.00,0,WeatherHawk,2013-05-21 03:05:00,
2013-05-20 22:10:00,84.5,49.6,29.92,ESE,117,0.0,-999.0,30,0.00,,,0.00,0,WeatherHawk,2013-05-21 03:10:00,
2013-05-20 22:15:00,84.3,49.5,29.91,ESE,102,8.0,0.0,30,0.00,,,0.00,0,WeatherHawk,2013-05-21 03:15:00,
2013-05-20 22:20:00,83.6,48.8,29.92,West,260,0.0,0.0,30,0.00,,,0.00,0,WeatherHawk,2013-05-21 03:20:00,
2013-05-20 22:25:00,83.2,49.4,29.91,North,350,3.0,0.0,31,0.00,,,0.00,0,WeatherHawk,2013-05-21 03:25:00,
2013-05-20 22:30:00,83.1,49.3,29.90,SE,143,1.0,0.0,31,0.00,,,0.00,0,WeatherHawk,2013-05-21 03:30:00,
2013-05-20 22:35:00,82.9,50.0,29.92,NNE,22,3.0,0.0,32,0.00,,,0.00,0,WeatherHawk,2013-05-21 03:35:00,
2013-05-20 22:40:00,83.0,50.1,29.92,ENE,77,0.0,0.0,32,0.00,,,0.00,0,WeatherHawk,2013-05-21 03:40:00,
2013-05-20 22:45:00,82.9,50.0,29.92,East,101,0.0,0.0,32,0.00,,,0.00,0,WeatherHawk,2013-05-21 03:45:00,
2013-05-20 22:50:00,83.2,50.3,29.92,East,100,4.0,0.0,32,0.00,,,0.00,1,WeatherHawk,2013-05-21 03:50:00,
2013-05-20 22:55:00,83.0,50.1,29.92,SSE,151,6.0,0.0,32,0.00,,,0.00,1,WeatherHawk,2013-05-21 03:55:00,
2013-05-20 23:00:00,83.2,49.3,29.93,SE,138,10.0,0.0,31,0.00,,,0.00,0,WeatherHawk,2013-05-21 04:00:00,
2013-05-20 23:01:00,84.1,48.3,29.92,SE,145,10.0,0.0,29,0.00,,,0.00,0,WeatherHawk,2013-05-21 04:01:00,
2013-05-20 23:02:00,83.9,47.3,29.92,SE,141,8.0,0.0,28,0.00,,,0.00,0,WeatherHawk,2013-05-21 04:02:00,
2013-05-20 23:03:00,84.4,47.7,29.91,SSW,195,11.0,0.0,28,0.00,,,0.00,1,WeatherHawk,2013-05-21 04:03:00,
2013-05-20 23:09:00,84.7,46.0,29.92,SE,140,7.0,0.0,26,0.00,,,0.00,1,WeatherHawk,2013-05-21 04:09:00,
2013-05-20 23:15:00,84.8,45.0,29.90,SE,126,12.0,0.0,25,0.00,,,0.00,0,WeatherHawk,2013-05-21 04:15:00,
2013-05-20 23:20:00,84.5,44.8,29.90,SSE,155,6.0,0.0,25,0.00,,,0.00,0,WeatherHawk,2013-05-21 04:20:00,
2013-05-20 23:25:00,84.6,44.9,29.89,ESE,107,8.0,0.0,25,0.00,,,0.00,0,WeatherHawk,2013-05-21 04:25:00,
2013-05-20 23:30:00,84.4,45.8,29.89,SW,223,13.0,0.0,26,0.00,,,0.00,1,WeatherHawk,2013-05-21 04:30:00,
2013-05-20 23:35:00,84.4,45.8,29.91,SSE,148,16.0,0.0,26,0.00,,,0.00,0,WeatherHawk,2013-05-21 04:35:00,
2013-05-20 23:40:00,84.1,46.5,29.90,ESE,112,14.0,0.0,27,0.00,,,0.00,0,WeatherHawk,2013-05-21 04:40:00,
2013-05-20 23:45:00,83.8,47.2,29.91,SSE,155,15.0,0.0,28,0.00,,,0.00,1,WeatherHawk,2013-05-21 04:45:00,
2013-05-20 23:50:00,83.4,48.6,29.89,South,186,18.0,0.0,30,0.00,,,0.00,0,WeatherHawk,2013-05-21 04:50:00,
2013-05-20 23:55:00,82.9,49.1,29.88,SSE,154,11.0,-999.0,31,0.00,,,0.00,1,WeatherHawk,2013-05-21 04:55:00,